STARLINK-11596 [DTC]

Last updated on Thu Jul 03 2025 00:02:06 GMT+0000 (Coordinated Universal Time)

1 64321U 25124E 25183.46297450 .00324227 00000+0 17873-2 0 9993 2 64321 43.0000 98.0998 0000945 293.5311 66.5460 15.77964181 3470
UTC large
Height (km)
Speed (km/s)
/
Latitude / Longitude
Inclination (degrees)
Orbital Period (minutes)
Azimuth
Elevation
Range (km)
Doppler Factor

Next 0 passes for location: London (51.5072 / 0.1276)

Sorry there are no passes over London.